Regional Weather Roundup
Issued by NWS Charleston, WV

Home | Current Version | Previous Version | Graphics & Text | Print | Product List | Glossary On
Versions: 1 2 3 4 5 6 7 8 9 10 11 12 13 14 15 16 17 18 19 20 21 22 23 24 25 26 27 28
000
ASUS41 KRLX 041510
RWRRLX
West Virginia Regional Weather Roundup
National Weather Service Charleston WV
1100 AM EDT WED MAY 04 2016

Note: "fair" indicates few or no clouds below 12,000 feet with no
significant weather and/or obstructions to visibility.

WVZ003-041600-
Northern Panhandle of West Virginia

CITY           SKY/WX    TMP DP  RH WIND       PRES   REMARKS
WHEELING       CLOUDY    55  47  74 CALM      29.70F
$$

WVZ009-041600-
Northwest West Virginia

CITY           SKY/WX    TMP DP  RH WIND       PRES   REMARKS
PARKERSBURG      N/A     58  50  75 VRB3      29.73F
$$

WVZ006-041600-
Western West Virginia

CITY           SKY/WX    TMP DP  RH WIND       PRES   REMARKS
HUNTINGTON     PTSUNNY   61  46  57 W6        29.72F
$$

WVZ015-041600-
West Central West Virginia

CITY           SKY/WX    TMP DP  RH WIND       PRES   REMARKS
CHARLESTON     PTSUNNY   57  49  74 SW9       29.73F
$$

WVZ022-031-041600-
North Central West Virginia

CITY           SKY/WX    TMP DP  RH WIND       PRES   REMARKS
CLARKSBURG     CLOUDY    55  49  80 CALM      29.71F
MORGANTOWN     CLOUDY    54  46  74 CALM      29.72S
$$

WVZ025-035-042-045-041600-
Southern West Virginia

CITY           SKY/WX    TMP DP  RH WIND       PRES   REMARKS
BECKLEY        LGT RAIN  49  43  80 W7        29.75S
LOGAN          NOT AVBL
BLUEFIELD      CLOUDY    49  42  77 W10       29.76F
LEWISBURG      CLOUDY    53  42  66 CALM      29.73F
$$

WVZ047-041600-
Northern Mountains of West Virginia

CITY           SKY/WX    TMP DP  RH WIND       PRES   REMARKS
ELKINS         LGT RAIN  49  43  80 NW6       29.73R
$$

WVZ052-041600-
Eastern Panhandle of West Virginia

CITY           SKY/WX    TMP DP  RH WIND       PRES   REMARKS
MARTINSBURG    CLOUDY    59  53  80 SE8       29.70S
PETERSBURG     CLOUDY    57  51  82 CALM      29.72S
$$




USA.gov is the U.S. government's official web portal to all federal, state and local government web resources and services.